Location: G�ppingen
(48.7089°N, 9.6563°E)
Time: 08:48:01
(UTC+02:00)

LilacSat-2 - Pass Details

Date: 25 March 2019
Orbit: 513 x 536 km, 97.5° (Epoch: 23 April)

Event Time Altitude Azimuth Distance (km) Brightness Sun altitude
Rises 05:38:01 0° 23° (NNE) 2,645 ? -6.8°
Reaches altitude 10° 05:40:24 10° 37° (NE) 1,750 ? -6.5°
Maximum altitude 05:43:35 26° 95° (E) 1,049 ? -5.9°
Drops below altitude 10° 05:46:45 10° 153° (SSE) 1,734 ? -5.4°
Sets 05:49:05 0° 166° (SSE) 2,615 ? -5.0°
